Regional Weather Roundup
Issued by NWS

Home | Current Version | Previous Version | Graphics & Text | Print | Product List | Glossary On
Versions: 1 2 3 4 5 6 7 8 9 10 11 12 13 14 15 16 17 18 19 20 21 22 23 24 25 26 27 28 29 30 31 32 33 34 35 36 37 38 39 40 41 42 43 44 45 46 47 48 49 50
000
ASUS45 KSLC 180710
RWRUT

UTAH REGIONAL WEATHER ROUNDUP
NATIONAL WEATHER SERVICE SALT LAKE CITY UT
1200 AM MST THU DEC 18 2014

UTZ001>011-023>025-180800-

NORTHERN UTAH

CITY           SKY/WX    TMP DP  RH WIND       PRES   REMARKS
BRIGHAM CITY   CLOUDY    32  28  84 NW3       30.08S
HILL AFB       PTCLDY    30  29  96 SE9       30.06F WCI  21
LOGAN          CLOUDY    32  27  81 CALM      30.07S
OGDEN          MOCLDY    30  28  92 S6        30.06F WCI  24
PROVO AIRPORT  CLOUDY    36  28  75 CALM      30.09R
SALT LAKE CITY CLOUDY    34  31  88 E5        30.07S WCI  30
VERNAL         CLOUDY    25  23  92 SE5       30.11R WCI  19
WENDOVER       CLEAR     28  23  80 CALM      30.07F
HEBER CITY     MOCLDY    27  23  86 CALM      30.06S
WEST JORDAN    CLOUDY    32  32 100 CALM      30.08S

$$

UTZ012>022-026-027-180800-

SOUTHERN/CENTRAL UTAH

CITY           SKY/WX    TMP DP  RH WIND       PRES   REMARKS
BRYCE CANYON   CLOUDY    15  13  91 W5        30.08R WCI   8
CEDAR CITY     FLURRIES  33  31  92 SE3       30.07R
DELTA          MOCLDY    34  32  90 CALM      30.07S
MILFORD        CLOUDY    36  31  82 S10       30.06S WCI  28
MOAB/CYNLANDS  CLOUDY    35  35 100 NW3       30.07R
PRICE          PTCLDY    27  21  78 CALM      30.05S
ST GEORGE      CLOUDY    45  37  76 CALM      30.12S
KANAB            N/A     32  32 100 NE3       30.14S

$$

REGIONAL REPORTS     COLORADO/ARIZONA

CITY           SKY/WX    TMP DP  RH WIND       PRES   REMARKS
CRAIG, CO      CLOUDY    26  25  96 SW3       30.06R FOG
GRAND JUNCTION LGT RAIN  34  34 100 N9        30.05S WCI  27
RIFLE          CLOUDY    33  32  96 W3        30.04S
MONTROSE       LGT SNOW  32  32 100 CALM      30.07S FOG
CORTEZ         CLOUDY    33  32  96 CALM      30.09S
PAGE, AZ       CLOUDY    37  33  85 CALM      30.10S
GRAND CANYON   CLOUDY    31  31 100 S3        30.11S FOG
KINGMAN        CLOUDY    40  36  86 S9        30.11S WCI  34
FLAGSTAFF      LGT SNOW  30  28  92 SW8       30.09F FOG     WCI  22

$$

REGIONAL REPORTS    NEVADA/IDAHO/WYOMING

CITY           SKY/WX    TMP DP  RH WIND       PRES   REMARKS
LAS VEGAS, NV  CLOUDY    49  44  83 S5        30.05S
ELY            CLOUDY    25  21  85 S8        30.06S WCI  16
ELKO           CLOUDY    27  25  92 CALM      30.06R FOG
POCATELLO, ID  PTCLDY    24  24 100 SE6       30.06F FOG     WCI  17
BURLEY         CLEAR     25  23  92 CALM      30.03S
EVANSTON, WY   CLOUDY    23  18  81 W7        30.04S WCI  15
ROCK SPRINGS   MOCLDY    18  14  84 SW7       30.02S WCI   9
KEMMERER       PTCLDY    19  14  79 N5        30.03S WCI  13

$$



USA.gov is the U.S. government's official web portal to all federal, state and local government web resources and services.